INTELSAT 901 (IS-901) (26824 NORAD) Tracking and Keplerian Element Data

This shows tracking and keplerian element data for the satellite.

Feedback or suggestion? Click here.




ElementValue
Catalog26824
NameINTELSAT 901 (IS-901)
Epoch Orbit934
Epoch Day269.73687909
Epoch Year2022
RAAN177.4242
Inclination0.022
Eccentricity9.71E-05
Argument of Perigee11.8941
Mean Anonmoly53.9878
Mean Motion1.00269367
Decay Rate-1.99E-06
L11 26824U 01024A 22269.73687909 -.00000199 00000+0 00000+0 0 9997
L22 26824 0.0220 177.4242 0000971 11.8941 53.9878 1.00269367 9346

Live tracking and technical data element details for INTELSAT 901 (IS-901) (NORAD 26824). INTELSAT 901 (IS-901) can be tracked NOW for your location showing map with azimuth and elevation plus other details from your city location.

Track the satellite on the map from your city or location and see movement details for azimuth, elevation, latitude, longitude, range, height, and movement on the map or in text.







IsCatalogInMostPopularTable: catalog: 26824, numindb: 671
Update: records affected: 1



GetName: 26824 INTELSAT 901 (IS-901)

Hit Count: updated at: Wed, 28 Sep 2022 22:53:11 GMT